| time (UTC) | temp F | wind direction | speed MPH | gust MPH | rain 1hr in | rain 24hr in | rain mn in | humidity % | barometer mb |
| 20260507120049 | 43 | 0 | 0.0 | 1.0 | 0.00 | 0.70 | 0.01 | 92 | 1006.7 |
| 20260507115539 | 43 | 0 | 0.0 | 1.0 | 0.00 | 0.71 | 0.01 | 92 | 1006.7 |
| 20260507115039 | 43 | 0 | 0.0 | 2.0 | 0.00 | 0.71 | 0.01 | 92 | 1006.7 |
| 20260507114549 | 43 | 0 | 0.0 | 2.0 | 0.00 | 0.71 | 0.01 | 92 | 1006.6 |
| 20260507114042 | 43 | 0 | 1.0 | 2.0 | 0.00 | 0.71 | 0.01 | 92 | 1006.6 |
| 20260507113540 | 43 | 0 | 0.0 | 5.0 | 0.00 | 0.71 | 0.01 | 92 | 1006.4 |
| 20260507113051 | 42 | 157 | 0.0 | 6.0 | 0.00 | 0.71 | 0.01 | 92 | 1006.4 |
| 20260507112538 | 42 | 157 | 1.0 | 6.0 | 0.01 | 0.71 | 0.01 | 92 | 1006.5 |
| 20260507112040 | 42 | 156 | 0.0 | 5.0 | 0.01 | 0.71 | 0.01 | 92 | 1006.5 |
| 20260507111555 | 42 | 0 | 1.0 | 5.0 | 0.01 | 0.71 | 0.01 | 92 | 1006.5 |
| 20260507111039 | 42 | 158 | 0.0 | 5.0 | 0.01 | 0.71 | 0.01 | 92 | 1006.5 |
| 20260507110539 | 42 | 0 | 1.0 | 5.0 | 0.01 | 0.71 | 0.01 | 92 | 1006.6 |
| 20260507110048 | 42 | 132 | 1.0 | 3.0 | 0.01 | 0.71 | 0.01 | 92 | 1006.5 |
| 20260507105539 | 42 | 0 | 0.0 | 3.0 | 0.01 | 0.72 | 0.01 | 92 | 1006.5 |
| 20260507105039 | 42 | 0 | 0.0 | 3.0 | 0.01 | 0.72 | 0.01 | 92 | 1006.6 |
| 20260507104548 | 42 | 0 | 0.0 | 3.0 | 0.01 | 0.72 | 0.01 | 92 | 1006.6 |
| 20260507104039 | 42 | 0 | 0.0 | 5.0 | 0.01 | 0.72 | 0.01 | 92 | 1006.6 |
| 20260507103540 | 41 | 132 | 1.0 | 5.0 | 0.01 | 0.72 | 0.01 | 92 | 1006.6 |
| 20260507103047 | 41 | 127 | 2.0 | 5.0 | 0.01 | 0.72 | 0.01 | 92 | 1006.5 |
| 20260507102540 | 41 | 126 | 0.0 | 3.0 | 0.00 | 0.71 | 0.00 | 92 | 1006.5 |
| 20260507102040 | 41 | 126 | 1.0 | 3.0 | 0.00 | 0.71 | 0.00 | 92 | 1006.6 |
| 20260507101549 | 41 | 126 | 1.0 | 3.0 | 0.00 | 0.71 | 0.00 | 92 | 1006.4 |
| 20260507101041 | 41 | 126 | 1.0 | 3.0 | 0.00 | 0.71 | 0.00 | 92 | 1006.4 |
| 20260507100538 | 41 | 126 | 0.0 | 3.0 | 0.00 | 0.71 | 0.00 | 92 | 1006.4 |
| 20260507100045 | 41 | 126 | 0.0 | 2.0 | 0.00 | 0.71 | 0.00 | 92 | 1006.2 |
| 20260507095540 | 41 | 0 | 1.0 | 4.0 | 0.00 | 0.71 | 0.00 | 92 | 1006.3 |
| 20260507095039 | 41 | 126 | 0.0 | 4.0 | 0.00 | 0.71 | 0.00 | 92 | 1006.4 |
| 20260507094552 | 41 | 126 | 0.0 | 2.0 | 0.00 | 0.71 | 0.00 | 92 | 1006.2 |
| 20260507094039 | 41 | 126 | 0.0 | 2.0 | 0.00 | 0.71 | 0.00 | 92 | 1006.2 |
| 20260507093538 | 41 | 0 | 0.0 | 2.0 | 0.00 | 0.71 | 0.00 | 92 | 1006.5 |
| 20260507093049 | 41 | 0 | 1.0 | 3.0 | 0.00 | 0.71 | 0.00 | 92 | 1006.6 |
| 20260507092539 | 41 | 0 | 0.0 | 3.0 | 0.00 | 0.71 | 0.00 | 92 | 1006.6 |
| 20260507092044 | 41 | 126 | 0.0 | 3.0 | 0.00 | 0.71 | 0.00 | 92 | 1006.5 |
| 20260507091544 | 41 | 126 | 1.0 | 3.0 | 0.00 | 0.71 | 0.00 | 92 | 1006.5 |
| 20260507091037 | 41 | 125 | 1.0 | 4.0 | 0.00 | 0.71 | 0.00 | 92 | 1006.5 |
| 20260507090538 | 41 | 125 | 0.0 | 4.0 | 0.00 | 0.71 | 0.00 | 92 | 1006.5 |
| 20260507090044 | 41 | 124 | 1.0 | 3.0 | 0.00 | 0.71 | 0.00 | 92 | 1006.5 |
| 20260507085541 | 41 | 124 | 2.0 | 4.0 | 0.00 | 0.71 | 0.00 | 92 | 1006.4 |
| 20260507085040 | 41 | 0 | 1.0 | 4.0 | 0.00 | 0.71 | 0.00 | 92 | 1006.3 |
| 20260507084553 | 42 | 178 | 0.0 | 3.0 | 0.00 | 0.71 | 0.00 | 92 | 1006.4 |
| 20260507084039 | 42 | 184 | 1.0 | 3.0 | 0.00 | 0.71 | 0.00 | 92 | 1006.5 |
| 20260507083540 | 42 | 184 | 0.0 | 3.0 | 0.00 | 0.71 | 0.00 | 92 | 1006.7 |
| 20260507083053 | 42 | 184 | 1.0 | 3.0 | 0.00 | 0.71 | 0.00 | 92 | 1006.7 |
| 20260507082544 | 42 | 180 | 0.0 | 3.0 | 0.00 | 0.71 | 0.00 | 92 | 1006.8 |
| 20260507082044 | 42 | 183 | 1.0 | 2.0 | 0.00 | 0.71 | 0.00 | 92 | 1006.8 |
| 20260507081549 | 42 | 0 | 0.0 | 2.0 | 0.00 | 0.71 | 0.00 | 92 | 1006.8 |
| 20260507081041 | 42 | 0 | 0.0 | 0.0 | 0.00 | 0.71 | 0.00 | 92 | 1006.7 |
| 20260507080539 | 42 | 0 | 0.0 | 0.0 | 0.00 | 0.71 | 0.00 | 92 | 1006.6 |
| 20260507080121 | 42 | 0 | 0.0 | 0.0 | 0.00 | 0.71 | 0.00 | 92 | 1006.5 |
| 20260507075540 | 42 | 0 | 0.0 | 1.0 | 0.00 | 0.72 | 0.00 | 92 | 1006.7 |
| 20260507075040 | 42 | 0 | 0.0 | 2.0 | 0.00 | 0.72 | 0.00 | 92 | 1006.6 |
| 20260507074546 | 42 | 0 | 0.0 | 2.0 | 0.00 | 0.72 | 0.00 | 92 | 1006.6 |
| 20260507074039 | 42 | 184 | 1.0 | 2.0 | 0.00 | 0.72 | 0.00 | 92 | 1006.5 |
| 20260507073540 | 42 | 0 | 0.0 | 3.0 | 0.00 | 0.72 | 0.00 | 92 | 1006.5 |
| 20260507073059 | 42 | 0 | 0.0 | 4.0 | 0.00 | 0.72 | 0.00 | 92 | 1006.5 |
| 20260507072540 | 42 | 184 | 1.0 | 4.0 | 0.00 | 0.72 | 0.00 | 92 | 1006.5 |
| 20260507072042 | 42 | 165 | 1.0 | 4.0 | 0.00 | 0.72 | 0.00 | 92 | 1006.5 |
| 20260507071601 | 42 | 191 | 1.0 | 4.0 | 0.00 | 0.72 | 0.00 | 92 | 1006.5 |
| 20260507071038 | 42 | 0 | 0.0 | 3.0 | 0.00 | 0.72 | 0.00 | 92 | 1006.2 |
| 20260507070537 | 42 | 153 | 0.0 | 3.0 | 0.00 | 0.72 | 0.00 | 92 | 1006.2 |
| 20260507070048 | 42 | 0 | 0.0 | 5.0 | 0.00 | 0.72 | 0.00 | 92 | 1006.1 |
| 20260507065539 | 42 | 0 | 0.0 | 5.0 | 0.00 | 0.74 | 0.00 | 92 | 1006.4 |
| 20260507065039 | 42 | 153 | 2.0 | 5.0 | 0.00 | 0.74 | 0.00 | 92 | 1006.4 |
| 20260507064552 | 42 | 164 | 2.0 | 4.0 | 0.00 | 0.74 | 0.00 | 92 | 1006.3 |
| 20260507064040 | 42 | 211 | 1.0 | 3.0 | 0.00 | 0.74 | 0.00 | 92 | 1006.5 |
| 20260507063539 | 42 | 0 | 0.0 | 0.0 | 0.00 | 0.74 | 0.00 | 92 | 1006.2 |
| 20260507063051 | 42 | 0 | 0.0 | 3.0 | 0.00 | 0.74 | 0.00 | 92 | 1006.1 |
| 20260507062540 | 42 | 0 | 0.0 | 3.0 | 0.00 | 0.74 | 0.00 | 92 | 1006.4 |
| 20260507062040 | 42 | 0 | 1.0 | 3.0 | 0.00 | 0.74 | 0.00 | 92 | 1006.5 |
| 20260507061544 | 42 | 0 | 0.0 | 3.0 | 0.00 | 0.74 | 0.00 | 92 | 1006.4 |
| 20260507061040 | 42 | 211 | 0.0 | 4.0 | 0.00 | 0.74 | 0.00 | 92 | 1006.4 |
| 20260507060541 | 42 | 0 | 1.0 | 4.0 | 0.00 | 0.74 | 0.00 | 92 | 1006.7 |
| 20260507060042 | 42 | 211 | 1.0 | 4.0 | 0.00 | 0.74 | 0.00 | 92 | 1006.6 |
| 20260507055540 | 42 | 240 | 1.0 | 3.0 | 0.00 | 0.77 | 0.00 | 92 | 1006.3 |
| 20260507055037 | 42 | 240 | 0.0 | 2.0 | 0.00 | 0.77 | 0.00 | 92 | 1006.6 |
| 20260507054549 | 42 | 0 | 0.0 | 2.0 | 0.00 | 0.77 | 0.00 | 92 | 1006.8 |
| 20260507054040 | 42 | 0 | 0.0 | 3.0 | 0.00 | 0.77 | 0.00 | 92 | 1006.7 |
| 20260507053540 | 42 | 0 | 0.0 | 3.0 | 0.00 | 0.77 | 0.00 | 92 | 1006.8 |
| 20260507053049 | 42 | 0 | 0.0 | 2.0 | 0.00 | 0.77 | 0.00 | 92 | 1006.9 |
| 20260507052539 | 42 | 0 | 0.0 | 2.0 | 0.00 | 0.77 | 0.00 | 92 | 1006.7 |
| 20260507052039 | 42 | 0 | 0.0 | 4.0 | 0.00 | 0.77 | 0.00 | 92 | 1006.6 |
| 20260507051549 | 42 | 320 | 1.0 | 8.0 | 0.00 | 0.77 | 0.00 | 92 | 1006.7 |
| 20260507051041 | 42 | 305 | 1.0 | 8.0 | 0.00 | 0.77 | 0.00 | 92 | 1006.9 |
| 20260507050538 | 42 | 305 | 4.0 | 8.0 | 0.00 | 0.77 | 0.00 | 92 | 1007.1 |
| 20260507050049 | 42 | 319 | 1.0 | 4.0 | 0.00 | 0.77 | 0.00 | 92 | 1006.9 |
| 20260507045540 | 42 | 299 | 1.0 | 6.0 | 0.00 | 0.86 | 0.00 | 92 | 1006.8 |
| 20260507045040 | 42 | 293 | 1.0 | 6.0 | 0.00 | 0.86 | 0.00 | 92 | 1006.8 |
| 20260507044549 | 42 | 266 | 3.0 | 6.0 | 0.00 | 0.86 | 0.00 | 92 | 1007.2 |
| 20260507044042 | 42 | 343 | 1.0 | 5.0 | 0.00 | 0.86 | 0.00 | 92 | 1007.1 |
| 20260507043539 | 42 | 0 | 0.0 | 5.0 | 0.00 | 0.86 | 0.00 | 92 | 1006.9 |
| 20260507043058 | 42 | 343 | 1.0 | 5.0 | 0.00 | 0.86 | 0.00 | 92 | 1006.9 |
| 20260507042539 | 42 | 9 | 1.0 | 4.0 | 0.00 | 0.86 | 0.00 | 92 | 1006.9 |
| 20260507042039 | 42 | 0 | 0.0 | 5.0 | 0.00 | 0.86 | 0.00 | 92 | 1007.1 |
| 20260507041551 | 42 | 309 | 1.0 | 5.0 | 0.00 | 0.86 | 0.00 | 92 | 1007.2 |
| 20260507041039 | 42 | 308 | 2.0 | 7.0 | 0.00 | 0.86 | 0.00 | 92 | 1007.0 |
| 20260507040541 | 42 | 331 | 3.0 | 7.0 | 0.00 | 0.86 | 0.00 | 92 | 1006.8 |
| 20260507040059 | 42 | 351 | 1.0 | 4.0 | 0.00 | 0.86 | 0.00 | 92 | 1006.8 |
| 20260507035539 | 43 | 351 | 1.0 | 5.0 | 0.00 | 0.94 | 0.86 | 92 | 1006.9 |
| 20260507035039 | 43 | 350 | 1.0 | 5.0 | 0.00 | 0.94 | 0.86 | 92 | 1006.8 |
| 20260507034558 | 43 | 0 | 1.0 | 8.0 | 0.00 | 0.94 | 0.86 | 92 | 1006.8 |
| 20260507034040 | 43 | 318 | 1.0 | 8.0 | 0.00 | 0.94 | 0.86 | 92 | 1007.1 |
| 20260507033538 | 43 | 310 | 4.0 | 8.0 | 0.00 | 0.94 | 0.86 | 92 | 1007.3 |
| 20260507033044 | 43 | 331 | 4.0 | 8.0 | 0.00 | 0.94 | 0.86 | 92 | 1007.3 |
| 20260507032542 | 43 | 323 | 2.0 | 10.0 | 0.00 | 0.94 | 0.86 | 92 | 1007.2 |
| 20260507032039 | 43 | 307 | 4.0 | 10.0 | 0.00 | 0.94 | 0.86 | 92 | 1007.3 |
| 20260507031548 | 43 | 294 | 5.0 | 10.0 | 0.00 | 0.94 | 0.86 | 92 | 1007.2 |
| 20260507031039 | 43 | 17 | 1.0 | 4.0 | 0.00 | 0.94 | 0.86 | 92 | 1007.0 |
| 20260507030538 | 43 | 306 | 2.0 | 4.0 | 0.00 | 0.94 | 0.86 | 92 | 1007.1 |
| 20260507030048 | 43 | 304 | 1.0 | 5.0 | 0.00 | 0.94 | 0.86 | 92 | 1007.0 |
| 20260507025539 | 43 | 304 | 1.0 | 8.0 | 0.01 | 0.94 | 0.86 | 92 | 1007.1 |
| 20260507025037 | 43 | 0 | 1.0 | 8.0 | 0.01 | 0.94 | 0.86 | 92 | 1007.2 |
| 20260507024545 | 43 | 325 | 1.0 | 6.0 | 0.01 | 0.94 | 0.86 | 92 | 1007.4 |
| 20260507024040 | 43 | 283 | 3.0 | 6.0 | 0.01 | 0.94 | 0.86 | 92 | 1007.2 |
| 20260507023538 | 43 | 300 | 1.0 | 4.0 | 0.02 | 0.94 | 0.86 | 92 | 1007.4 |
| 20260507023048 | 43 | 0 | 1.0 | 7.0 | 0.03 | 0.94 | 0.86 | 92 | 1007.3 |
| 20260507022540 | 43 | 300 | 1.0 | 7.0 | 0.03 | 0.94 | 0.86 | 92 | 1007.2 |
| 20260507022040 | 43 | 300 | 3.0 | 7.0 | 0.04 | 0.94 | 0.86 | 91 | 1007.4 |
| 20260507021549 | 43 | 301 | 2.0 | 7.0 | 0.04 | 0.94 | 0.86 | 92 | 1007.3 |
| 20260507021038 | 43 | 275 | 3.0 | 7.0 | 0.04 | 0.94 | 0.86 | 91 | 1007.6 |
| 20260507020540 | 43 | 305 | 4.0 | 7.0 | 0.04 | 0.94 | 0.86 | 91 | 1007.5 |
| 20260507015539 | 43 | 306 | 3.0 | 6.0 | 0.03 | 0.93 | 0.85 | 91 | 1007.5 |
| 20260507015037 | 43 | 360 | 3.0 | 7.0 | 0.03 | 0.93 | 0.85 | 91 | 1007.5 |
| 20260507014600 | 43 | 321 | 3.0 | 11.0 | 0.03 | 0.93 | 0.85 | 92 | 1007.6 |
| 20260507014039 | 43 | 298 | 4.0 | 11.0 | 0.03 | 0.92 | 0.84 | 92 | 1007.6 |
| 20260507013542 | 44 | 298 | 3.0 | 10.0 | 0.03 | 0.92 | 0.84 | 92 | 1007.7 |
| 20260507013044 | 44 | 310 | 4.0 | 10.0 | 0.03 | 0.91 | 0.83 | 92 | 1007.7 |
| 20260507012542 | 44 | 312 | 3.0 | 8.0 | 0.03 | 0.91 | 0.83 | 92 | 1007.7 |
| 20260507012040 | 44 | 326 | 1.0 | 9.0 | 0.02 | 0.90 | 0.82 | 91 | 1007.7 |
| 20260507011559 | 44 | 313 | 4.0 | 9.0 | 0.02 | 0.90 | 0.82 | 91 | 1007.6 |
| 20260507011039 | 44 | 318 | 4.0 | 9.0 | 0.02 | 0.90 | 0.82 | 91 | 1007.5 |
| 20260507010539 | 44 | 311 | 4.0 | 8.0 | 0.02 | 0.90 | 0.82 | 91 | 1007.4 |
| 20260507010043 | 44 | 305 | 3.0 | 8.0 | 0.03 | 0.90 | 0.82 | 91 | 1007.3 |
| 20260507005539 | 44 | 343 | 3.0 | 8.0 | 0.03 | 0.90 | 0.82 | 91 | 1007.3 |
| 20260507005041 | 44 | 319 | 3.0 | 8.0 | 0.03 | 0.90 | 0.82 | 91 | 1007.1 |
| 20260507004550 | 44 | 307 | 4.0 | 8.0 | 0.03 | 0.90 | 0.82 | 91 | 1007.1 |
| 20260507004039 | 44 | 304 | 3.0 | 8.0 | 0.02 | 0.89 | 0.81 | 91 | 1007.0 |
| 20260507003544 | 44 | 325 | 2.0 | 5.0 | 0.02 | 0.89 | 0.81 | 91 | 1006.9 |
| 20260507003049 | 44 | 9 | 2.0 | 6.0 | 0.02 | 0.88 | 0.80 | 92 | 1006.8 |
| 20260507002539 | 44 | 292 | 1.0 | 7.0 | 0.02 | 0.88 | 0.80 | 92 | 1007.0 |
| 20260507002040 | 44 | 279 | 3.0 | 7.0 | 0.02 | 0.88 | 0.80 | 92 | 1006.9 |
| 20260507001606 | 44 | 302 | 1.0 | 6.0 | 0.02 | 0.88 | 0.80 | 92 | 1006.7 |
| 20260507001039 | 44 | 280 | 1.0 | 6.0 | 0.02 | 0.88 | 0.80 | 92 | 1006.4 |
| 20260507000544 | 44 | 279 | 1.0 | 6.0 | 0.02 | 0.88 | 0.80 | 92 | 1006.5 |
| 20260507000045 | 44 | 292 | 0.0 | 4.0 | 0.02 | 0.87 | 0.79 | 92 | 1006.0 |
| 20260506235540 | 44 | 0 | 1.0 | 4.0 | 0.02 | 0.87 | 0.79 | 92 | 1005.7 |
| 20260506235039 | 44 | 0 | 2.0 | 4.0 | 0.02 | 0.87 | 0.79 | 91 | 1006.1 |
| 20260506234548 | 44 | 325 | 0.0 | 5.0 | 0.02 | 0.87 | 0.79 | 91 | 1006.0 |
| 20260506234039 | 44 | 350 | 2.0 | 5.0 | 0.02 | 0.87 | 0.79 | 91 | 1005.7 |
| 20260506233540 | 44 | 308 | 2.0 | 4.0 | 0.02 | 0.87 | 0.79 | 91 | 1005.9 |
| 20260506233049 | 44 | 0 | 2.0 | 4.0 | 0.01 | 0.86 | 0.78 | 91 | 1006.1 |
| 20260506232539 | 44 | 309 | 1.0 | 5.0 | 0.01 | 0.86 | 0.78 | 91 | 1006.1 |
| 20260506232040 | 45 | 309 | 1.0 | 5.0 | 0.01 | 0.86 | 0.78 | 91 | 1005.9 |
| 20260506231544 | 45 | 309 | 2.0 | 5.0 | 0.02 | 0.86 | 0.78 | 91 | 1005.8 |
| 20260506231038 | 45 | 312 | 1.0 | 5.0 | 0.02 | 0.86 | 0.78 | 91 | 1005.9 |
| 20260506230541 | 45 | 346 | 0.0 | 3.0 | 0.02 | 0.86 | 0.78 | 91 | 1006.0 |
| 20260506230052 | 45 | 346 | 1.0 | 3.0 | 0.01 | 0.85 | 0.77 | 91 | 1005.6 |
| 20260506225540 | 45 | 346 | 1.0 | 3.0 | 0.01 | 0.85 | 0.77 | 91 | 1005.7 |
| 20260506225040 | 45 | 0 | 0.0 | 6.0 | 0.01 | 0.85 | 0.77 | 91 | 1005.8 |
| 20260506224548 | 45 | 0 | 0.0 | 7.0 | 0.01 | 0.85 | 0.77 | 91 | 1005.8 |
| 20260506224039 | 45 | 5 | 3.0 | 7.0 | 0.01 | 0.85 | 0.77 | 91 | 1005.9 |
| 20260506223538 | 45 | 13 | 2.0 | 5.0 | 0.01 | 0.85 | 0.77 | 91 | 1005.8 |
| 20260506223049 | 45 | 295 | 2.0 | 6.0 | 0.01 | 0.85 | 0.77 | 91 | 1005.7 |
| 20260506222539 | 45 | 288 | 2.0 | 6.0 | 0.01 | 0.85 | 0.77 | 91 | 1005.7 |
| 20260506222037 | 45 | 322 | 1.0 | 5.0 | 0.02 | 0.85 | 0.77 | 91 | 1005.7 |
| 20260506221551 | 45 | 327 | 1.0 | 5.0 | 0.01 | 0.84 | 0.76 | 91 | 1005.5 |
| 20260506221038 | 45 | 317 | 2.0 | 5.0 | 0.01 | 0.84 | 0.76 | 91 | 1005.6 |
| 20260506220540 | 45 | 314 | 2.0 | 5.0 | 0.01 | 0.84 | 0.76 | 91 | 1005.6 |
| 20260506220059 | 45 | 319 | 0.0 | 4.0 | 0.02 | 0.84 | 0.76 | 91 | 1005.7 |
| 20260506215541 | 45 | 319 | 2.0 | 4.0 | 0.02 | 0.84 | 0.76 | 91 | 1005.6 |
| 20260506215041 | 45 | 339 | 0.0 | 4.0 | 0.02 | 0.84 | 0.76 | 91 | 1005.6 |
| 20260506214546 | 45 | 0 | 0.0 | 4.0 | 0.03 | 0.84 | 0.76 | 91 | 1005.6 |
| 20260506214040 | 45 | 339 | 2.0 | 5.0 | 0.03 | 0.84 | 0.76 | 91 | 1005.5 |
| 20260506213539 | 45 | 0 | 0.0 | 5.0 | 0.03 | 0.84 | 0.76 | 91 | 1005.4 |
| 20260506213044 | 45 | 340 | 2.0 | 5.0 | 0.04 | 0.84 | 0.76 | 91 | 1005.3 |
| 20260506212540 | 45 | 348 | 1.0 | 5.0 | 0.04 | 0.84 | 0.76 | 91 | 1005.5 |
| 20260506212041 | 45 | 0 | 1.0 | 5.0 | 0.03 | 0.83 | 0.75 | 91 | 1005.4 |
| 20260506211547 | 45 | 348 | 3.0 | 5.0 | 0.03 | 0.83 | 0.75 | 91 | 1005.5 |
| 20260506211039 | 45 | 321 | 3.0 | 5.0 | 0.03 | 0.83 | 0.75 | 91 | 1005.5 |
| 20260506210542 | 46 | 315 | 1.0 | 4.0 | 0.04 | 0.83 | 0.75 | 91 | 1005.3 |
| 20260506210100 | 45 | 315 | 0.0 | 3.0 | 0.04 | 0.82 | 0.74 | 91 | 1005.4 |
| 20260506205539 | 45 | 0 | 1.0 | 3.0 | 0.04 | 0.84 | 0.74 | 91 | 1005.3 |
| 20260506205041 | 45 | 314 | 1.0 | 3.0 | 0.05 | 0.84 | 0.74 | 91 | 1005.3 |
| 20260506204550 | 45 | 314 | 0.0 | 3.0 | 0.04 | 0.83 | 0.73 | 91 | 1005.3 |
| 20260506204039 | 45 | 0 | 0.0 | 4.0 | 0.04 | 0.83 | 0.73 | 91 | 1005.3 |
| 20260506203540 | 45 | 314 | 0.0 | 4.0 | 0.04 | 0.83 | 0.73 | 91 | 1005.3 |
| 20260506203121 | 45 | 314 | 1.0 | 4.0 | 0.03 | 0.82 | 0.72 | 91 | 1005.3 |
| 20260506202540 | 45 | 315 | 1.0 | 5.0 | 0.04 | 0.82 | 0.72 | 91 | 1005.0 |
| 20260506202040 | 46 | 349 | 2.0 | 5.0 | 0.04 | 0.82 | 0.72 | 91 | 1005.2 |
| 20260506201541 | 46 | 334 | 1.0 | 7.0 | 0.05 | 0.82 | 0.72 | 91 | 1005.3 |
| 20260506201039 | 46 | 333 | 2.0 | 7.0 | 0.05 | 0.82 | 0.72 | 91 | 1005.3 |
| 20260506200539 | 46 | 304 | 2.0 | 5.0 | 0.04 | 0.81 | 0.71 | 91 | 1005.3 |
| 20260506200051 | 46 | 330 | 1.0 | 4.0 | 0.03 | 0.80 | 0.70 | 91 | 1005.2 |
| 20260506195538 | 46 | 346 | 1.0 | 4.0 | 0.03 | 0.85 | 0.70 | 91 | 1005.0 |
| 20260506195039 | 46 | 355 | 1.0 | 4.0 | 0.02 | 0.84 | 0.69 | 91 | 1005.1 |
| 20260506194549 | 46 | 352 | 0.0 | 3.0 | 0.02 | 0.84 | 0.69 | 91 | 1005.2 |
| 20260506194040 | 46 | 326 | 1.0 | 3.0 | 0.02 | 0.84 | 0.69 | 91 | 1005.2 |
| 20260506193540 | 46 | 360 | 0.0 | 3.0 | 0.02 | 0.84 | 0.69 | 91 | 1005.4 |
| 20260506193045 | 46 | 360 | 1.0 | 4.0 | 0.01 | 0.83 | 0.68 | 91 | 1005.3 |
| 20260506192540 | 46 | 0 | 1.0 | 6.0 | 0.01 | 0.83 | 0.68 | 91 | 1005.4 |
| 20260506192040 | 46 | 345 | 3.0 | 6.0 | 0.01 | 0.83 | 0.68 | 91 | 1005.3 |
| 20260506191550 | 46 | 25 | 3.0 | 6.0 | 0.00 | 0.82 | 0.67 | 91 | 1005.3 |
| 20260506191040 | 46 | 24 | 1.0 | 8.0 | 0.01 | 0.82 | 0.67 | 91 | 1005.4 |
| 20260506190540 | 46 | 27 | 3.0 | 8.0 | 0.01 | 0.82 | 0.67 | 91 | 1005.3 |
| 20260506190053 | 46 | 5 | 2.0 | 7.0 | 0.02 | 0.82 | 0.67 | 91 | 1005.2 |
| 20260506185540 | 46 | 34 | 2.0 | 6.0 | 0.03 | 0.82 | 0.67 | 91 | 1005.2 |
| 20260506185039 | 46 | 5 | 3.0 | 9.0 | 0.05 | 0.82 | 0.67 | 91 | 1005.3 |
| 20260506184556 | 46 | 23 | 3.0 | 9.0 | 0.06 | 0.82 | 0.67 | 91 | 1005.2 |
| 20260506184039 | 46 | 5 | 4.0 | 9.0 | 0.08 | 0.82 | 0.67 | 91 | 1005.2 |
| 20260506183538 | 46 | 84 | 4.0 | 10.0 | 0.10 | 0.82 | 0.67 | 91 | 1005.2 |
| 20260506183101 | 46 | 5 | 5.0 | 10.0 | 0.12 | 0.82 | 0.67 | 91 | 1005.2 |
| 20260506182541 | 46 | 36 | 4.0 | 9.0 | 0.12 | 0.82 | 0.67 | 91 | 1005.3 |
| 20260506182042 | 46 | 30 | 4.0 | 12.0 | 0.13 | 0.82 | 0.67 | 91 | 1005.4 |
| 20260506181548 | 46 | 20 | 4.0 | 12.0 | 0.14 | 0.82 | 0.67 | 91 | 1005.5 |
| 20260506181040 | 46 | 315 | 5.0 | 12.0 | 0.13 | 0.81 | 0.66 | 91 | 1005.6 |
| 20260506180540 | 46 | 22 | 4.0 | 9.0 | 0.14 | 0.81 | 0.66 | 91 | 1005.8 |
| 20260506180054 | 46 | 343 | 2.0 | 5.0 | 0.15 | 0.80 | 0.65 | 91 | 1006.3 |
| 20260506175540 | 46 | 344 | 1.0 | 6.0 | 0.14 | 0.79 | 0.64 | 91 | 1006.5 |
| 20260506175043 | 46 | 5 | 3.0 | 8.0 | 0.15 | 0.77 | 0.62 | 91 | 1006.1 |
| 20260506174604 | 46 | 323 | 2.0 | 8.0 | 0.15 | 0.75 | 0.60 | 91 | 1005.9 |
| 20260506174040 | 46 | 33 | 0.0 | 5.0 | 0.14 | 0.73 | 0.58 | 91 | 1005.9 |
| 20260506173539 | 46 | 355 | 1.0 | 5.0 | 0.13 | 0.72 | 0.57 | 91 | 1006.1 |
| 20260506173056 | 46 | 328 | 0.0 | 4.0 | 0.12 | 0.70 | 0.55 | 91 | 1006.0 |
| 20260506172539 | 46 | 328 | 1.0 | 4.0 | 0.12 | 0.69 | 0.54 | 91 | 1005.8 |
| 20260506172040 | 46 | 328 | 2.0 | 4.0 | 0.13 | 0.69 | 0.54 | 91 | 1006.0 |
| 20260506171547 | 46 | 329 | 1.0 | 4.0 | 0.13 | 0.68 | 0.52 | 91 | 1006.1 |
| 20260506171040 | 46 | 329 | 1.0 | 4.0 | 0.14 | 0.68 | 0.52 | 91 | 1006.1 |
| 20260506170539 | 46 | 329 | 2.0 | 5.0 | 0.13 | 0.67 | 0.52 | 91 | 1005.9 |
| 20260506170100 | 46 | 329 | 2.0 | 8.0 | 0.12 | 0.65 | 0.50 | 91 | 1005.9 |
| 20260506165540 | 46 | 331 | 2.0 | 9.0 | 0.12 | 0.65 | 0.50 | 91 | 1005.7 |
| 20260506165040 | 46 | 329 | 4.0 | 9.0 | 0.10 | 0.62 | 0.47 | 91 | 1005.9 |
| 20260506164553 | 46 | 309 | 5.0 | 9.0 | 0.09 | 0.60 | 0.45 | 91 | 1006.1 |
| 20260506164038 | 46 | 10 | 3.0 | 8.0 | 0.08 | 0.58 | 0.44 | 91 | 1005.8 |
| 20260506163538 | 46 | 327 | 3.0 | 12.0 | 0.08 | 0.58 | 0.43 | 91 | 1005.8 |
| 20260506163104 | 46 | 293 | 4.0 | 12.0 | 0.08 | 0.58 | 0.43 | 91 | 1005.9 |
| 20260506162539 | 46 | 301 | 5.0 | 10.0 | 0.08 | 0.57 | 0.42 | 91 | 1006.1 |
| 20260506162040 | 46 | 305 | 5.0 | 10.0 | 0.07 | 0.56 | 0.41 | 91 | 1006.1 |
| 20260506161549 | 47 | 297 | 3.0 | 8.0 | 0.07 | 0.55 | 0.40 | 91 | 1006.2 |
| 20260506161044 | 47 | 317 | 3.0 | 8.0 | 0.06 | 0.54 | 0.39 | 91 | 1006.0 |
| 20260506160539 | 47 | 314 | 2.0 | 8.0 | 0.06 | 0.54 | 0.39 | 91 | 1005.9 |
| 20260506160051 | 47 | 309 | 3.0 | 8.0 | 0.06 | 0.52 | 0.38 | 91 | 1005.9 |
| 20260506155540 | 47 | 319 | 2.0 | 8.0 | 0.05 | 0.52 | 0.37 | 91 | 1006.0 |
| 20260506155040 | 47 | 336 | 1.0 | 8.0 | 0.06 | 0.52 | 0.37 | 91 | 1006.1 |
| 20260506154553 | 47 | 302 | 3.0 | 8.0 | 0.05 | 0.51 | 0.36 | 91 | 1006.2 |
| 20260506154043 | 48 | 336 | 2.0 | 5.0 | 0.05 | 0.51 | 0.36 | 91 | 1006.1 |
| 20260506153541 | 47 | 306 | 2.0 | 5.0 | 0.05 | 0.50 | 0.35 | 91 | 1006.1 |
| 20260506153043 | 48 | 306 | 2.0 | 5.0 | 0.05 | 0.50 | 0.35 | 91 | 1006.1 |
| 20260506152538 | 48 | 298 | 2.0 | 5.0 | 0.04 | 0.49 | 0.34 | 91 | 1006.2 |
| 20260506152040 | 48 | 298 | 2.0 | 5.0 | 0.05 | 0.49 | 0.34 | 91 | 1006.4 |
| 20260506151551 | 48 | 333 | 3.0 | 5.0 | 0.04 | 0.48 | 0.33 | 91 | 1006.4 |
| 20260506151038 | 48 | 337 | 1.0 | 5.0 | 0.04 | 0.48 | 0.33 | 91 | 1006.5 |
| 20260506150537 | 48 | 342 | 2.0 | 5.0 | 0.04 | 0.48 | 0.33 | 91 | 1006.5 |
| 20260506150050 | 48 | 325 | 2.0 | 5.0 | 0.04 | 0.47 | 0.32 | 91 | 1006.6 |
| 20260506145535 | 48 | 306 | 2.0 | 5.0 | 0.05 | 0.47 | 0.32 | 91 | 1006.8 |
| 20260506145037 | 49 | 10 | 2.0 | 5.0 | 0.04 | 0.46 | 0.31 | 91 | 1006.8 |
| 20260506144548 | 49 | 341 | 1.0 | 4.0 | 0.05 | 0.46 | 0.31 | 91 | 1006.8 |
| 20260506144036 | 49 | 340 | 1.0 | 4.0 | 0.05 | 0.46 | 0.31 | 91 | 1006.7 |
| 20260506143537 | 49 | 340 | 2.0 | 4.0 | 0.04 | 0.45 | 0.30 | 91 | 1006.6 |
| 20260506143046 | 49 | 5 | 1.0 | 5.0 | 0.05 | 0.45 | 0.30 | 91 | 1006.7 |
| 20260506142538 | 48 | 5 | 2.0 | 5.0 | 0.05 | 0.45 | 0.30 | 91 | 1006.7 |
| 20260506142037 | 49 | 352 | 2.0 | 5.0 | 0.05 | 0.44 | 0.29 | 91 | 1006.8 |
| 20260506141550 | 49 | 27 | 0.0 | 4.0 | 0.06 | 0.44 | 0.29 | 91 | 1006.6 |
| 20260506141039 | 49 | 28 | 2.0 | 5.0 | 0.06 | 0.44 | 0.29 | 91 | 1006.6 |
| 20260506140539 | 49 | 0 | 1.0 | 5.0 | 0.07 | 0.44 | 0.29 | 91 | 1006.7 |
| 20260506140042 | 49 | 0 | 1.0 | 5.0 | 0.07 | 0.43 | 0.28 | 91 | 1006.8 |
| 20260506135538 | 49 | 17 | 0.0 | 4.0 | 0.07 | 0.42 | 0.27 | 91 | 1006.9 |
| 20260506135039 | 49 | 0 | 1.0 | 5.0 | 0.07 | 0.42 | 0.27 | 91 | 1007.0 |
| 20260506134540 | 49 | 0 | 1.0 | 5.0 | 0.07 | 0.41 | 0.26 | 91 | 1007.0 |
| 20260506134038 | 49 | 24 | 2.0 | 5.0 | 0.07 | 0.41 | 0.26 | 91 | 1006.9 |
| 20260506133538 | 49 | 26 | 0.0 | 4.0 | 0.07 | 0.40 | 0.25 | 91 | 1006.8 |
| 20260506133050 | 49 | 0 | 1.0 | 4.0 | 0.07 | 0.40 | 0.25 | 91 | 1006.9 |
| 20260506132541 | 49 | 53 | 1.0 | 3.0 | 0.06 | 0.39 | 0.24 | 91 | 1007.0 |
| 20260506132038 | 49 | 313 | 1.0 | 2.0 | 0.07 | 0.39 | 0.24 | 91 | 1007.1 |
| 20260506131543 | 49 | 0 | 0.0 | 4.0 | 0.06 | 0.38 | 0.23 | 91 | 1007.0 |
| 20260506131039 | 49 | 0 | 0.0 | 4.0 | 0.06 | 0.38 | 0.23 | 91 | 1007.1 |
| 20260506130538 | 49 | 313 | 2.0 | 4.0 | 0.05 | 0.37 | 0.22 | 91 | 1007.3 |
| 20260506130043 | 49 | 355 | 0.0 | 0.0 | 0.04 | 0.36 | 0.21 | 91 | 1007.4 |
| 20260506125536 | 49 | 0 | 0.0 | 1.0 | 0.03 | 0.35 | 0.20 | 91 | 1007.3 |
| 20260506125038 | 49 | 0 | 0.0 | 1.0 | 0.03 | 0.34 | 0.19 | 91 | 1007.4 |
| 20260506124545 | 49 | 0 | 0.0 | 2.0 | 0.03 | 0.34 | 0.19 | 91 | 1007.4 |
| 20260506124038 | 49 | 0 | 0.0 | 3.0 | 0.03 | 0.34 | 0.19 | 91 | 1007.4 |
| 20260506123538 | 49 | 0 | 0.0 | 3.0 | 0.02 | 0.33 | 0.18 | 91 | 1007.5 |
| 20260506123040 | 49 | 0 | 0.0 | 3.0 | 0.02 | 0.33 | 0.18 | 91 | 1007.6 |
| 20260506122538 | 49 | 0 | 0.0 | 5.0 | 0.02 | 0.33 | 0.18 | 91 | 1007.5 |
| 20260506122038 | 49 | 355 | 1.0 | 9.0 | 0.01 | 0.32 | 0.17 | 91 | 1007.3 |
| 20260506121557 | 49 | 355 | 2.0 | 9.0 | 0.01 | 0.32 | 0.17 | 91 | 1007.5 |
| 20260506121038 | 49 | 314 | 4.0 | 9.0 | 0.01 | 0.32 | 0.17 | 91 | 1007.8 |
| 20260506120538 | 50 | 313 | 0.0 | 5.0 | 0.01 | 0.32 | 0.17 | 91 | 1007.7 |